User: anonymous
Location: Bismarck
(46.7731°N, 100.8200°W)
Time: 02:48:02
(UTC-05:00)
Language:

Cosmos 2219 Rocket - Orbit

View from above orbital plane
View from above orbital plane
View from above satellite
View from above satellite

Ground track
Ground track

The orbit data is extracted from the following two-line orbital elements,

1 22220U 92076B   14211.82255803 -.00000283  00000-0 -11853-3 0  3646
2 22220 071.0011 114.2618 0010820 071.8692 353.7567 14.16318294121769
Epoch (UTC): 30 July 2014 19:44:29
Eccentricity: 0.0010820
inclination: 71.0011°
perigee height: 830 km
apogee height: 845 km
right ascension of ascending node: 114.2618°
argument of perigee: 71.8692°
revolutions per day: 14.16318294
mean anomaly at epoch: 353.7567°
orbit number at epoch: 12176

The dashed part of the orbit path shows where the satellite is in the earth's shadow,  

DLR